This is the latest recevied weather packets stored in our database for station/object KD7CIH. If no packets are shown the sender has not sent any weather packets the latest 1 day(s).
| Time | Temp. | Humidity | Pressure | Rain* | Wind** | Luminosity | Snow |
|---|---|---|---|---|---|---|---|
| 1778033503 | 1.11° C | 79% | 1007.5 hPa | 0 mm | 3.58 m/s, 102° | - | - |
| 1778033075 | 1.67° C | 79% | 1007.3 hPa | 0 mm | 2.68 m/s, 72° | - | - |
| 1778032773 | 1.67° C | 78% | 1007.2 hPa | 0 mm | 2.24 m/s, 81° | - | - |
| 1778032600 | 1.67° C | 80% | 1007.3 hPa | 0 mm | 1.79 m/s, 92° | - | - |
| 1778032175 | 1.67° C | 81% | 1007.2 hPa | 0 mm | 0.89 m/s, 82° | - | - |
| 1778032002 | 1.67° C | 82% | 1007.1 hPa | 0.25 mm | 1.34 m/s, 95° | - | - |
| 1778031574 | 1.67° C | 81% | 1007.1 hPa | 0.25 mm | 1.79 m/s, 129° | - | - |
| 1778031402 | 1.67° C | 81% | 1007.2 hPa | 0.25 mm | 2.24 m/s, 162° | - | - |
| 1778030974 | 1.67° C | 81% | 1007 hPa | 0.25 mm | 3.58 m/s, 98° | - | - |
| 1778030673 | 1.67° C | 81% | 1007 hPa | 0.25 mm | 4.02 m/s, 88° | - | - |
| 1778030373 | 1.67° C | 81% | 1007 hPa | 0.25 mm | 3.58 m/s, 85° | - | - |
| 1778030074 | 1.67° C | 81% | 1007 hPa | 0.25 mm | 3.13 m/s, 49° | - | - |
| 1778029775 | 1.67° C | 81% | 1007 hPa | 0.25 mm | 3.58 m/s, 120° | - | - |
| 1778029475 | 1.67° C | 80% | 1007 hPa | 0.25 mm | 4.47 m/s, 64° | - | - |
| 1778029175 | 1.67° C | 80% | 1007.1 hPa | 0.51 mm | 3.58 m/s, 79° | - | - |
| 1778028876 | 2.22° C | 81% | 1007 hPa | 0.51 mm | 3.13 m/s, 89° | - | - |
| 1778028700 | 2.22° C | 79% | 1007 hPa | 0.51 mm | 2.68 m/s, 92° | - | - |
| 1778028273 | 2.22° C | 80% | 1006.9 hPa | 0.25 mm | 2.24 m/s, 115° | - | - |
| 1778027976 | 2.22° C | 80% | 1006.7 hPa | 0.51 mm | 2.24 m/s, 152° | - | - |
| 1778027802 | 2.22° C | 81% | 1006.6 hPa | 0.51 mm | 1.34 m/s, 215° | - | - |
| 1778027373 | 2.22° C | 81% | 1006.5 hPa | 0.51 mm | 1.34 m/s, 133° | - | - |
| 1778027073 | 2.22° C | 81% | 1006.6 hPa | 0.76 mm | 1.79 m/s, 215° | - | - |
| 1778026900 | 2.22° C | 81% | 1006.5 hPa | 1.02 mm | 1.79 m/s, 244° | - | - |
| 1778026473 | 2.78° C | 81% | 1006.5 hPa | 1.02 mm | 1.79 m/s, 88° | - | - |
| 1778026174 | 2.78° C | 81% | 1006.4 hPa | 1.27 mm | 1.34 m/s, 151° | - | - |
* Rain latest hour (hover to see other rain measurements)
** Current wind speed in m/s (hover to see current wind gust speed)